User: anonymous   Login
Location: Caribou
(46.8667°N, 68.0167°W)
Time: 01:24:39
(UTC-05:00)
Language:

SL-08 RB Rocket - Orbit

View from above orbital plane
View from above orbital plane
View from above satellite
View from above satellite

Ground track
Ground track

The orbit data is extracted from the following two-line orbital elements,

1 26387U 00033D   14329.22252999  .00000662  00000-0  12477-3 0  6705
2 26387 098.0888 035.0617 0027824 065.8012 000.1481 14.67532927770707
Epoch (UTC): 25 November 2014 05:20:26
Eccentricity: 0.0027824
inclination: 98.0888°
perigee height: 649 km
apogee height: 688 km
right ascension of ascending node: 35.0617°
argument of perigee: 65.8012°
revolutions per day: 14.67532927
mean anomaly at epoch: 0.1481°
orbit number at epoch: 77070

The dashed part of the orbit path shows where the satellite is in the earth's shadow,  

DLR